Simultaneous Nadir Overpasses (SNOs) Predictions

Prediction of SNOs between NPP and TERRA Satellite Orbit:

Table of predicted SNOs for the next 14.0 days since TLE Epoch: 11/5/2016
Index Date (NPP) Time (NPP) Lat,Lon (NPP) SZA (NPP ) Date (TERRA) Time (TERRA) Lat,Lon (TERRA) SZA (TERRA ) Distance(km) Time Diff (sec)
1 11/05/2016 02:06:14 68.80, 146.66 84.47 11/05/2016 02:07:25 68.73, 147.37 84.41 29.64 71
2 11/05/2016 02:56:49 -68.35, -45.42 95.97 11/05/2016 02:57:00 -68.35, -45.47 95.97 1.94 11
3 11/05/2016 03:47:33 68.21, 122.05 83.92 11/05/2016 03:46:27 68.23, 122.04 83.92 1.62 66
4 11/07/2016 18:23:03 68.46, -97.13 84.93 11/07/2016 18:23:58 68.47, -97.07 84.94 2.68 55
5 11/07/2016 19:13:44 -68.32, 70.37 95.20 11/07/2016 19:13:29 -68.32, 70.38 95.21 0.78 15
6 11/07/2016 20:04:16 67.55,-121.36 84.06 11/07/2016 20:03:07 67.58,-122.83 84.05 62.68 69
7 11/10/2016 10:39:56 68.39, 18.73 85.62 11/10/2016 10:40:27 68.37, 18.70 85.61 2.42 31
8 11/10/2016 11:30:37 -68.25,-173.77 94.51 11/10/2016 11:29:57 -68.28,-173.79 94.49 3.05 40
9 11/13/2016 02:06:13 -68.82, -33.38 93.25 11/13/2016 02:07:24 -68.73, -32.63 93.33 31.65 71
10 11/13/2016 02:56:50 68.33, 134.57 86.29 11/13/2016 02:56:56 68.32, 134.52 86.28 2.27 6
11 11/13/2016 03:47:32 -68.24, -57.99 93.80 11/13/2016 03:46:26 -68.23, -57.96 93.82 1.28 66
12 11/15/2016 18:23:01 -68.43, 82.90 92.94 11/15/2016 18:23:57 -68.45, 82.91 92.93 1.42 56
13 11/15/2016 19:13:45 68.33,-109.65
